Time,TemperatureF,DewpointF,PressureIn,WindDirection,WindDirectionDegrees,WindSpeedMPH,WindSpeedGustMPH,Humidity,HourlyPrecipIn,Conditions,Clouds,dailyrainin,SoftwareType,DateUTC
2013-07-10 00:02:00,70.0,66.9,29.96,SW,221,5.0,5.0,90,0.00,,,0.02,Wunderground v.1.15,2013-07-10 04:02:00,
2013-07-10 00:03:00,70.0,66.9,29.96,SSW,210,4.0,5.0,90,0.00,,,0.00,Wunderground v.1.15,2013-07-10 04:03:00,
2013-07-10 00:08:00,69.9,66.8,29.96,SW,228,3.0,5.0,90,0.00,,,0.00,Wunderground v.1.15,2013-07-10 04:08:00,
2013-07-10 00:13:00,69.9,66.8,29.96,SSW,208,4.0,5.0,90,0.00,,,0.00,Wunderground v.1.15,2013-07-10 04:13:00,
2013-07-10 00:20:00,69.8,66.7,29.96,SSW,198,4.0,4.0,90,0.00,,,0.00,Wunderground v.1.15,2013-07-10 04:20:00,
2013-07-10 00:26:00,69.7,66.6,29.96,SW,214,4.0,4.0,90,0.00,,,0.00,Wunderground v.1.15,2013-07-10 04:26:00,
2013-07-10 00:32:00,69.6,66.9,29.96,SW,217,2.0,4.0,91,0.00,,,0.00,Wunderground v.1.15,2013-07-10 04:32:00,
2013-07-10 00:38:00,69.5,66.8,29.96,SW,227,3.0,4.0,91,0.00,,,0.00,Wunderground v.1.15,2013-07-10 04:38:00,
2013-07-10 00:43:00,69.6,66.9,29.95,SW,227,4.0,5.0,91,0.00,,,0.00,Wunderground v.1.15,2013-07-10 04:43:00,
2013-07-10 00:50:00,69.7,67.0,29.95,South,191,4.0,5.0,91,0.00,,,0.00,Wunderground v.1.15,2013-07-10 04:50:00,
2013-07-10 00:56:00,69.7,67.0,29.96,SSW,195,6.0,8.0,91,0.00,,,0.00,Wunderground v.1.15,2013-07-10 04:56:00,
2013-07-10 01:02:00,69.8,66.7,29.96,SW,216,6.0,7.0,90,0.00,,,0.00,Wunderground v.1.15,2013-07-10 05:02:00,
2013-07-10 01:08:00,69.9,66.8,29.96,SSW,193,7.0,8.0,90,0.00,,,0.00,Wunderground v.1.15,2013-07-10 05:08:00,
2013-07-10 01:14:00,69.8,66.7,29.96,SSW,198,7.0,8.0,90,0.00,,,0.00,Wunderground v.1.15,2013-07-10 05:14:00,
2013-07-10 01:20:00,69.8,66.4,29.96,South,188,7.0,8.0,89,0.00,,,0.00,Wunderground v.1.15,2013-07-10 05:20:00,
2013-07-10 01:26:00,69.9,66.5,29.96,SSW,202,6.0,8.0,89,0.00,,,0.00,Wunderground v.1.15,2013-07-10 05:26:00,
2013-07-10 01:32:00,70.0,66.3,29.96,SSW,206,6.0,7.0,88,0.00,,,0.00,Wunderground v.1.15,2013-07-10 05:32:00,
2013-07-10 01:38:00,70.1,66.4,29.96,South,185,5.0,7.0,88,0.00,,,0.00,Wunderground v.1.15,2013-07-10 05:38:00,
2013-07-10 01:43:00,70.3,66.6,29.96,WSW,248,3.0,4.0,88,0.00,,,0.00,Wunderground v.1.15,2013-07-10 05:43:00,
2013-07-10 01:50:00,70.7,66.3,29.96,SW,217,5.0,5.0,86,0.00,,,0.00,Wunderground v.1.15,2013-07-10 05:50:00,
2013-07-10 01:56:00,71.0,66.6,29.96,SW,232,6.0,8.0,86,0.00,,,0.00,Wunderground v.1.15,2013-07-10 05:56:00,
2013-07-10 02:02:00,71.3,66.6,29.96,SSW,196,5.0,6.0,85,0.00,,,0.00,Wunderground v.1.15,2013-07-10 06:02:00,
2013-07-10 02:08:00,71.6,66.8,29.96,South,184,6.0,9.0,85,0.00,,,0.00,Wunderground v.1.15,2013-07-10 06:08:00,
2013-07-10 02:14:00,71.8,67.0,29.96,South,175,6.0,6.0,85,0.00,,,0.00,Wunderground v.1.15,2013-07-10 06:14:00,
2013-07-10 02:20:00,72.0,66.9,29.96,SW,236,5.0,7.0,84,0.00,,,0.00,Wunderground v.1.15,2013-07-10 06:20:00,
2013-07-10 02:26:00,72.2,67.1,29.95,South,185,6.0,10.0,84,0.00,,,0.00,Wunderground v.1.15,2013-07-10 06:26:00,
2013-07-10 02:32:00,72.3,67.2,29.95,SSW,206,6.0,6.0,84,0.00,,,0.00,Wunderground v.1.15,2013-07-10 06:32:00,
2013-07-10 02:38:00,72.3,67.2,29.95,SSW,197,5.0,6.0,84,0.00,,,0.00,Wunderground v.1.15,2013-07-10 06:38:00,
2013-07-10 02:44:00,72.2,67.1,29.95,SSW,197,5.0,9.0,84,0.00,,,0.00,Wunderground v.1.15,2013-07-10 06:44:00,
2013-07-10 02:50:00,72.3,66.8,29.95,South,180,7.0,8.0,83,0.00,,,0.00,Wunderground v.1.15,2013-07-10 06:50:00,
2013-07-10 02:56:00,72.3,66.8,29.94,South,178,8.0,17.0,83,0.00,,,0.00,Wunderground v.1.15,2013-07-10 06:56:00,
2013-07-10 03:02:00,72.3,66.8,29.94,South,179,7.0,8.0,83,0.00,,,0.00,Wunderground v.1.15,2013-07-10 07:02:00,
2013-07-10 03:08:00,72.3,66.8,29.94,SW,221,5.0,10.0,83,0.00,,,0.00,Wunderground v.1.15,2013-07-10 07:08:00,
2013-07-10 03:14:00,72.2,66.7,29.94,SSW,210,7.0,8.0,83,0.00,,,0.00,Wunderground v.1.15,2013-07-10 07:14:00,
2013-07-10 03:20:00,72.2,66.7,29.93,South,191,7.0,9.0,83,0.00,,,0.00,Wunderground v.1.15,2013-07-10 07:20:00,
2013-07-10 03:26:00,72.2,66.7,29.93,South,186,6.0,11.0,83,0.00,,,0.00,Wunderground v.1.15,2013-07-10 07:26:00,
2013-07-10 03:32:00,72.2,66.7,29.93,SSW,200,5.0,5.0,83,0.00,,,0.00,Wunderground v.1.15,2013-07-10 07:32:00,
2013-07-10 03:38:00,72.0,66.6,29.93,South,180,5.0,8.0,83,0.00,,,0.00,Wunderground v.1.15,2013-07-10 07:38:00,
2013-07-10 03:44:00,71.9,66.5,29.93,South,175,4.0,4.0,83,0.00,,,0.00,Wunderground v.1.15,2013-07-10 07:44:00,
2013-07-10 03:50:00,71.7,66.6,29.93,SSW,209,3.0,4.0,84,0.00,,,0.00,Wunderground v.1.15,2013-07-10 07:50:00,
2013-07-10 03:56:00,71.5,66.4,29.93,SSW,192,3.0,3.0,84,0.00,,,0.00,Wunderground v.1.15,2013-07-10 07:56:00,
2013-07-10 04:02:00,71.4,66.3,29.93,SSW,192,3.0,6.0,84,0.00,,,0.00,Wunderground v.1.15,2013-07-10 08:02:00,
2013-07-10 04:08:00,71.1,66.0,29.93,SSW,203,4.0,6.0,84,0.00,,,0.00,Wunderground v.1.15,2013-07-10 08:08:00,
2013-07-10 04:14:00,70.8,66.1,29.93,South,190,4.0,6.0,85,0.00,,,0.00,Wunderground v.1.15,2013-07-10 08:14:00,
2013-07-10 04:20:00,70.4,65.7,29.93,South,190,2.0,3.0,85,0.00,,,0.00,Wunderground v.1.15,2013-07-10 08:20:00,
2013-07-10 04:26:00,70.0,65.6,29.93,SSW,201,2.0,5.0,86,0.00,,,0.00,Wunderground v.1.15,2013-07-10 08:26:00,
2013-07-10 04:32:00,69.8,65.4,29.93,SSW,195,2.0,2.0,86,0.00,,,0.00,Wunderground v.1.15,2013-07-10 08:32:00,
2013-07-10 04:38:00,69.7,65.3,29.93,SSW,208,1.0,2.0,86,0.00,,,0.00,Wunderground v.1.15,2013-07-10 08:38:00,
2013-07-10 04:44:00,69.5,65.1,29.93,SSW,213,2.0,2.0,86,0.00,,,0.00,Wunderground v.1.15,2013-07-10 08:44:00,
2013-07-10 04:50:00,69.3,65.3,29.92,SSW,200,2.0,2.0,87,0.00,,,0.00,Wunderground v.1.15,2013-07-10 08:50:00,
2013-07-10 04:56:00,69.0,65.0,29.93,SSW,209,2.0,5.0,87,0.00,,,0.00,Wunderground v.1.15,2013-07-10 08:56:00,
2013-07-10 05:02:00,68.8,64.8,29.93,SSW,194,4.0,5.0,87,0.00,,,0.00,Wunderground v.1.15,2013-07-10 09:02:00,
2013-07-10 05:08:00,68.6,64.9,29.92,SSW,212,4.0,5.0,88,0.00,,,0.00,Wunderground v.1.15,2013-07-10 09:08:00,
2013-07-10 05:14:00,68.4,64.7,29.92,SW,223,3.0,5.0,88,0.00,,,0.00,Wunderground v.1.15,2013-07-10 09:14:00,
2013-07-10 05:20:00,68.3,64.6,29.92,SW,227,3.0,4.0,88,0.00,,,0.00,Wunderground v.1.15,2013-07-10 09:20:00,
2013-07-10 05:26:00,68.1,64.7,29.92,SW,219,4.0,6.0,89,0.00,,,0.00,Wunderground v.1.15,2013-07-10 09:26:00,
2013-07-10 05:32:00,68.0,64.6,29.92,SW,219,4.0,5.0,89,0.00,,,0.00,Wunderground v.1.15,2013-07-10 09:32:00,
2013-07-10 05:37:00,67.9,64.5,29.92,SW,235,3.0,5.0,89,0.00,,,0.00,Wunderground v.1.15,2013-07-10 09:37:00,
2013-07-10 05:44:00,67.9,64.5,29.93,SW,229,3.0,4.0,89,0.00,,,0.00,Wunderground v.1.15,2013-07-10 09:44:00,
2013-07-10 05:50:00,67.8,64.4,29.93,SSW,210,2.0,2.0,89,0.00,,,0.00,Wunderground v.1.15,2013-07-10 09:50:00,
2013-07-10 05:56:00,67.8,64.4,29.93,SW,221,2.0,4.0,89,0.00,,,0.00,Wunderground v.1.15,2013-07-10 09:56:00,
2013-07-10 06:02:00,67.8,64.4,29.93,SW,215,2.0,2.0,89,0.00,,,0.00,Wunderground v.1.15,2013-07-10 10:02:00,
2013-07-10 06:07:00,67.8,64.4,29.92,SSW,213,2.0,2.0,89,0.00,,,0.00,Wunderground v.1.15,2013-07-10 10:07:00,
2013-07-10 06:14:00,67.9,64.5,29.92,SW,215,1.0,2.0,89,0.00,,,0.00,Wunderground v.1.15,2013-07-10 10:14:00,
2013-07-10 06:20:00,67.9,64.5,29.92,SSW,211,1.0,2.0,89,0.00,,,0.00,Wunderground v.1.15,2013-07-10 10:20:00,
2013-07-10 06:26:00,67.8,64.4,29.92,SW,219,2.0,2.0,89,0.00,,,0.00,Wunderground v.1.15,2013-07-10 10:26:00,
2013-07-10 06:32:00,67.8,64.4,29.92,SW,236,1.0,5.0,89,0.00,,,0.00,Wunderground v.1.15,2013-07-10 10:32:00,
2013-07-10 06:37:00,67.8,64.4,29.92,SSW,198,3.0,5.0,89,0.00,,,0.00,Wunderground v.1.15,2013-07-10 10:37:00,
2013-07-10 06:44:00,67.9,64.5,29.92,SW,225,2.0,3.0,89,0.00,,,0.00,Wunderground v.1.15,2013-07-10 10:44:00,
2013-07-10 06:50:00,67.9,64.5,29.92,SW,227,2.0,2.0,89,0.00,,,0.00,Wunderground v.1.15,2013-07-10 10:50:00,
2013-07-10 06:55:00,67.9,64.5,29.93,WSW,240,2.0,3.0,89,0.00,,,0.00,Wunderground v.1.15,2013-07-10 10:55:00,
2013-07-10 07:02:00,68.0,64.6,29.93,SW,229,2.0,4.0,89,0.00,,,0.00,Wunderground v.1.15,2013-07-10 11:02:00,
2013-07-10 07:08:00,68.2,64.8,29.93,SW,231,1.0,4.0,89,0.00,,,0.00,Wunderground v.1.15,2013-07-10 11:08:00,
2013-07-10 07:14:00,68.3,64.9,29.93,SW,229,0.0,1.0,89,0.00,,,0.00,Wunderground v.1.15,2013-07-10 11:14:00,
2013-07-10 07:20:00,68.6,65.2,29.93,SSW,192,1.0,5.0,89,0.00,,,0.00,Wunderground v.1.15,2013-07-10 11:20:00,
2013-07-10 07:26:00,68.6,65.2,29.93,South,188,3.0,5.0,89,0.00,,,0.00,Wunderground v.1.15,2013-07-10 11:26:00,
2013-07-10 07:32:00,68.7,65.3,29.93,WSW,250,4.0,4.0,89,0.00,,,0.00,Wunderground v.1.15,2013-07-10 11:32:00,
2013-07-10 07:38:00,68.8,65.1,29.93,WSW,250,1.0,4.0,88,0.00,,,0.00,Wunderground v.1.15,2013-07-10 11:38:00,
2013-07-10 07:44:00,69.1,65.4,29.93,SW,233,1.0,3.0,88,0.00,,,0.00,Wunderground v.1.15,2013-07-10 11:44:00,
2013-07-10 07:50:00,69.3,65.3,29.93,South,187,3.0,4.0,87,0.00,,,0.01,Wunderground v.1.15,2013-07-10 11:50:00,
2013-07-10 07:56:00,69.3,65.6,29.93,SW,214,3.0,4.0,88,0.00,,,0.01,Wunderground v.1.15,2013-07-10 11:56:00,
2013-07-10 08:02:00,69.3,65.6,29.93,SSW,204,2.0,5.0,88,0.00,,,0.01,Wunderground v.1.15,2013-07-10 12:02:00,
2013-07-10 08:08:00,69.2,65.5,29.93,SW,216,4.0,5.0,88,0.00,,,0.01,Wunderground v.1.15,2013-07-10 12:08:00,
2013-07-10 08:13:00,69.1,65.4,29.93,SSW,198,3.0,4.0,88,0.00,,,0.01,Wunderground v.1.15,2013-07-10 12:13:00,
2013-07-10 08:20:00,69.0,65.6,29.94,SW,221,3.0,4.0,89,0.00,,,0.01,Wunderground v.1.15,2013-07-10 12:20:00,
2013-07-10 08:26:00,68.8,65.4,29.94,SSW,202,4.0,6.0,89,0.46,,,0.05,Wunderground v.1.15,2013-07-10 12:26:00,
2013-07-10 08:32:00,68.5,65.1,29.95,SSW,213,3.0,4.0,89,0.31,,,0.08,Wunderground v.1.15,2013-07-10 12:32:00,
2013-07-10 08:38:00,68.3,65.3,29.95,SW,224,2.0,5.0,90,0.32,,,0.12,Wunderground v.1.15,2013-07-10 12:38:00,
2013-07-10 08:44:00,68.3,65.6,29.95,SSW,205,2.0,3.0,91,0.39,,,0.15,Wunderground v.1.15,2013-07-10 12:44:00,
2013-07-10 08:50:00,68.3,65.6,29.95,SSW,192,3.0,6.0,91,0.41,,,0.19,Wunderground v.1.15,2013-07-10 12:50:00,
2013-07-10 08:56:00,68.4,66.0,29.95,SSW,196,5.0,6.0,92,0.25,,,0.21,Wunderground v.1.15,2013-07-10 12:56:00,
2013-07-10 09:02:00,68.4,66.0,29.96,SSW,207,5.0,5.0,92,0.46,,,0.25,Wunderground v.1.15,2013-07-10 13:02:00,
2013-07-10 09:08:00,68.6,66.2,29.96,SSW,213,4.0,5.0,92,0.45,,,0.29,Wunderground v.1.15,2013-07-10 13:08:00,
2013-07-10 09:14:00,68.9,66.8,29.96,SSW,208,2.0,3.0,93,0.26,,,0.31,Wunderground v.1.15,2013-07-10 13:14:00,
2013-07-10 09:20:00,69.0,66.9,29.95,SSW,213,3.0,3.0,93,0.21,,,0.34,Wunderground v.1.15,2013-07-10 13:20:00,
2013-07-10 09:26:00,69.1,67.0,29.95,SW,235,4.0,6.0,93,0.21,,,0.36,Wunderground v.1.15,2013-07-10 13:26:00,
2013-07-10 09:32:00,69.2,67.4,29.95,SSW,209,5.0,5.0,94,0.38,,,0.39,Wunderground v.1.15,2013-07-10 13:32:00,
2013-07-10 09:38:00,69.4,67.6,29.96,SSW,210,4.0,5.0,94,0.20,,,0.41,Wunderground v.1.15,2013-07-10 13:38:00,
2013-07-10 09:44:00,69.5,67.7,29.95,SSW,211,3.0,4.0,94,0.15,,,0.42,Wunderground v.1.15,2013-07-10 13:44:00,
2013-07-10 09:50:00,69.4,67.6,29.96,SW,236,2.0,3.0,94,0.13,,,0.43,Wunderground v.1.15,2013-07-10 13:50:00,
2013-07-10 09:55:00,69.4,67.6,29.95,SW,214,3.0,4.0,94,0.10,,,0.44,Wunderground v.1.15,2013-07-10 13:55:00,
2013-07-10 10:02:00,69.5,67.7,29.95,SW,221,2.0,4.0,94,0.06,,,0.44,Wunderground v.1.15,2013-07-10 14:02:00,
2013-07-10 10:08:00,69.6,67.8,29.95,SSW,198,2.0,4.0,94,0.04,,,0.45,Wunderground v.1.15,2013-07-10 14:08:00,
2013-07-10 10:14:00,69.6,67.8,29.95,SW,223,1.0,1.0,94,0.04,,,0.45,Wunderground v.1.15,2013-07-10 14:14:00,
2013-07-10 10:20:00,69.5,67.7,29.94,SSW,203,2.0,2.0,94,0.04,,,0.45,Wunderground v.1.15,2013-07-10 14:20:00,
2013-07-10 10:26:00,69.4,67.6,29.95,SSW,198,3.0,5.0,94,0.00,,,0.46,Wunderground v.1.15,2013-07-10 14:26:00,
2013-07-10 10:32:00,69.4,67.6,29.95,SW,219,5.0,8.0,94,0.00,,,0.46,Wunderground v.1.15,2013-07-10 14:32:00,
2013-07-10 10:38:00,69.4,67.6,29.95,South,189,5.0,8.0,94,0.06,,,0.47,Wunderground v.1.15,2013-07-10 14:38:00,
2013-07-10 10:43:00,69.4,67.6,29.95,South,180,4.0,6.0,94,0.06,,,0.47,Wunderground v.1.15,2013-07-10 14:43:00,
2013-07-10 10:50:00,69.3,67.5,29.95,SSW,198,6.0,6.0,94,0.06,,,0.48,Wunderground v.1.15,2013-07-10 14:50:00,
2013-07-10 10:56:00,69.4,67.6,29.94,South,178,6.0,6.0,94,0.08,,,0.49,Wunderground v.1.15,2013-07-10 14:56:00,
2013-07-10 11:02:00,69.7,67.9,29.94,South,179,3.0,4.0,94,0.08,,,0.50,Wunderground v.1.15,2013-07-10 15:02:00,
2013-07-10 11:08:00,69.6,67.8,29.94,SW,217,3.0,6.0,94,0.08,,,0.51,Wunderground v.1.15,2013-07-10 15:08:00,
2013-07-10 11:14:00,69.7,67.9,29.94,SW,225,5.0,6.0,94,0.08,,,0.51,Wunderground v.1.15,2013-07-10 15:14:00,
2013-07-10 11:20:00,69.4,67.6,29.93,South,181,7.0,13.0,94,0.07,,,0.52,Wunderground v.1.15,2013-07-10 15:20:00,
2013-07-10 11:26:00,69.0,66.9,29.93,South,185,8.0,13.0,93,0.06,,,0.52,Wunderground v.1.15,2013-07-10 15:26:00,
2013-07-10 11:32:00,69.3,67.2,29.93,SW,235,6.0,9.0,93,0.05,,,0.53,Wunderground v.1.15,2013-07-10 15:32:00,
2013-07-10 11:38:00,69.9,67.8,29.92,SW,218,6.0,9.0,93,0.05,,,0.53,Wunderground v.1.15,2013-07-10 15:38:00,
2013-07-10 11:44:00,70.1,68.0,29.92,SW,234,7.0,7.0,93,0.04,,,0.54,Wunderground v.1.15,2013-07-10 15:44:00,
2013-07-10 11:50:00,70.3,68.2,29.92,SSW,206,7.0,8.0,93,0.04,,,0.54,Wunderground v.1.15,2013-07-10 15:50:00,
2013-07-10 11:56:00,70.5,68.4,29.93,SSW,211,6.0,8.0,93,0.04,,,0.54,Wunderground v.1.15,2013-07-10 15:56:00,
2013-07-10 12:02:00,70.2,67.8,29.93,SSW,196,8.0,12.0,92,0.00,,,0.54,Wunderground v.1.15,2013-07-10 16:02:00,
2013-07-10 12:08:00,70.8,68.7,29.92,SW,219,7.0,12.0,93,0.00,,,0.54,Wunderground v.1.15,2013-07-10 16:08:00,
2013-07-10 12:14:00,70.6,67.8,29.92,South,191,6.0,9.0,91,0.00,,,0.54,Wunderground v.1.15,2013-07-10 16:14:00,
2013-07-10 12:20:00,70.4,67.6,29.93,SW,226,7.0,7.0,91,0.00,,,0.54,Wunderground v.1.15,2013-07-10 16:20:00,
2013-07-10 12:26:00,70.4,67.6,29.93,SW,214,7.0,11.0,91,0.00,,,0.54,Wunderground v.1.15,2013-07-10 16:26:00,
2013-07-10 12:32:00,70.6,67.8,29.92,WSW,240,5.0,6.0,91,0.00,,,0.54,Wunderground v.1.15,2013-07-10 16:32:00,
2013-07-10 12:38:00,71.0,68.6,29.91,SSW,194,4.0,6.0,92,0.00,,,0.54,Wunderground v.1.15,2013-07-10 16:38:00,
2013-07-10 12:44:00,70.4,67.3,29.91,SW,219,5.0,6.0,90,0.00,,,0.54,Wunderground v.1.15,2013-07-10 16:44:00,
2013-07-10 12:50:00,70.3,66.9,29.92,South,183,6.0,8.0,89,0.00,,,0.54,Wunderground v.1.15,2013-07-10 16:50:00,
2013-07-10 12:56:00,70.4,67.0,29.91,SSW,196,5.0,8.0,89,0.00,,,0.54,Wunderground v.1.15,2013-07-10 16:56:00,
2013-07-10 13:02:00,70.5,67.1,29.90,SSW,213,4.0,6.0,89,0.00,,,0.54,Wunderground v.1.15,2013-07-10 17:02:00,
2013-07-10 13:08:00,71.0,66.9,29.89,SW,233,3.0,6.0,87,0.00,,,0.54,Wunderground v.1.15,2013-07-10 17:08:00,
2013-07-10 13:14:00,71.3,67.2,29.89,SSW,194,3.0,5.0,87,0.00,,,0.54,Wunderground v.1.15,2013-07-10 17:14:00,
2013-07-10 13:20:00,72.2,67.8,29.89,WSW,244,4.0,5.0,86,0.00,,,0.54,Wunderground v.1.15,2013-07-10 17:20:00,
2013-07-10 13:26:00,72.9,68.5,29.89,South,186,4.0,8.0,86,0.00,,,0.54,Wunderground v.1.15,2013-07-10 17:26:00,
2013-07-10 13:32:00,73.5,68.7,29.89,SSW,193,5.0,5.0,85,0.00,,,0.54,Wunderground v.1.15,2013-07-10 17:32:00,
2013-07-10 13:38:00,74.6,70.1,29.89,SSE,164,6.0,6.0,86,0.00,,,0.54,Wunderground v.1.15,2013-07-10 17:38:00,
2013-07-10 13:44:00,76.8,70.9,29.89,South,182,8.0,9.0,82,0.00,,,0.54,Wunderground v.1.15,2013-07-10 17:44:00,
2013-07-10 13:50:00,77.8,70.0,29.89,South,188,9.0,9.0,77,0.00,,,0.54,Wunderground v.1.15,2013-07-10 17:50:00,
2013-07-10 13:56:00,78.4,69.8,29.88,South,184,7.0,9.0,75,0.00,,,0.54,Wunderground v.1.15,2013-07-10 17:56:00,
2013-07-10 14:02:00,79.1,69.7,29.88,South,184,6.0,9.0,73,0.00,,,0.54,Wunderground v.1.15,2013-07-10 18:02:00,
2013-07-10 14:07:00,79.9,70.5,29.88,SSW,196,7.0,9.0,73,0.00,,,0.54,Wunderground v.1.15,2013-07-10 18:07:00,
2013-07-10 14:14:00,80.1,71.1,29.87,SSE,159,7.0,9.0,74,0.00,,,0.54,Wunderground v.1.15,2013-07-10 18:14:00,
2013-07-10 14:20:00,80.5,71.4,29.87,SSW,196,6.0,8.0,74,0.00,,,0.54,Wunderground v.1.15,2013-07-10 18:20:00,
2013-07-10 14:26:00,81.1,71.2,29.87,SSW,208,6.0,8.0,72,0.00,,,0.54,Wunderground v.1.15,2013-07-10 18:26:00,
2013-07-10 14:32:00,81.2,70.1,29.87,SW,215,6.0,6.0,69,0.00,,,0.54,Wunderground v.1.15,2013-07-10 18:32:00,
2013-07-10 14:38:00,81.7,71.4,29.87,SSW,193,6.0,9.0,71,0.00,,,0.54,Wunderground v.1.15,2013-07-10 18:38:00,
2013-07-10 14:44:00,82.1,70.9,29.86,SW,214,5.0,6.0,69,0.00,,,0.54,Wunderground v.1.15,2013-07-10 18:44:00,
2013-07-10 14:50:00,82.5,71.3,29.86,SSW,193,4.0,10.0,69,0.00,,,0.54,Wunderground v.1.15,2013-07-10 18:50:00,
2013-07-10 14:55:00,83.4,71.7,29.86,South,169,6.0,10.0,68,0.00,,,0.54,Wunderground v.1.15,2013-07-10 18:55:00,
2013-07-10 15:02:00,83.1,71.9,29.86,WSW,245,5.0,5.0,69,0.00,,,0.54,Wunderground v.1.15,2013-07-10 19:02:00,
2013-07-10 15:08:00,84.0,73.2,29.85,SSW,202,4.0,8.0,70,0.00,,,0.54,Wunderground v.1.15,2013-07-10 19:08:00,
2013-07-10 15:14:00,84.7,72.1,29.85,SW,216,5.0,9.0,66,0.00,,,0.54,Wunderground v.1.15,2013-07-10 19:14:00,
2013-07-10 15:20:00,84.3,72.1,29.84,SW,232,7.0,7.0,67,0.00,,,0.54,Wunderground v.1.15,2013-07-10 19:20:00,
2013-07-10 15:26:00,84.6,72.9,29.83,South,187,6.0,8.0,68,0.00,,,0.54,Wunderground v.1.15,2013-07-10 19:26:00,
2013-07-10 15:31:00,85.3,73.5,29.83,South,190,7.0,7.0,68,0.00,,,0.54,Wunderground v.1.15,2013-07-10 19:31:00,
2013-07-10 15:38:00,85.6,72.5,29.83,WSW,253,6.0,9.0,65,0.00,,,0.54,Wunderground v.1.15,2013-07-10 19:38:00,
2013-07-10 15:44:00,85.5,72.8,29.82,SW,232,5.0,8.0,66,0.00,,,0.54,Wunderground v.1.15,2013-07-10 19:44:00,
2013-07-10 15:50:00,85.8,73.6,29.81,South,178,6.0,6.0,67,0.00,,,0.54,Wunderground v.1.15,2013-07-10 19:50:00,
2013-07-10 15:55:00,86.5,72.9,29.81,SW,223,6.0,7.0,64,0.00,,,0.54,Wunderground v.1.15,2013-07-10 19:55:00,
2013-07-10 16:02:00,86.1,72.5,29.81,SW,217,6.0,6.0,64,0.00,,,0.54,Wunderground v.1.15,2013-07-10 20:02:00,
2013-07-10 16:08:00,86.6,74.3,29.81,SSW,194,5.0,6.0,67,0.00,,,0.54,Wunderground v.1.15,2013-07-10 20:08:00,
2013-07-10 16:14:00,86.9,73.7,29.81,South,169,5.0,7.0,65,0.00,,,0.54,Wunderground v.1.15,2013-07-10 20:14:00,
2013-07-10 16:20:00,86.0,73.3,29.80,SSE,164,6.0,6.0,66,0.00,,,0.54,Wunderground v.1.15,2013-07-10 20:20:00,
2013-07-10 16:26:00,86.4,73.7,29.80,SSE,158,5.0,7.0,66,0.00,,,0.54,Wunderground v.1.15,2013-07-10 20:26:00,
2013-07-10 16:31:00,86.3,74.0,29.80,South,178,5.0,6.0,67,0.00,,,0.54,Wunderground v.1.15,2013-07-10 20:31:00,
2013-07-10 16:38:00,86.6,73.9,29.80,SW,215,5.0,6.0,66,0.00,,,0.54,Wunderground v.1.15,2013-07-10 20:38:00,
2013-07-10 16:44:00,86.6,73.9,29.80,SW,215,4.0,5.0,66,0.00,,,0.54,Wunderground v.1.15,2013-07-10 20:44:00,
2013-07-10 16:50:00,86.2,74.4,29.80,SSW,202,3.0,8.0,68,0.00,,,0.54,Wunderground v.1.15,2013-07-10 20:50:00,
2013-07-10 16:56:00,85.8,74.4,29.81,SW,225,4.0,8.0,69,0.00,,,0.54,Wunderground v.1.15,2013-07-10 20:56:00,
2013-07-10 17:02:00,85.3,73.5,29.81,SSW,210,4.0,9.0,68,0.00,,,0.54,Wunderground v.1.15,2013-07-10 21:02:00,
2013-07-10 17:08:00,85.3,74.4,29.81,SSW,204,3.0,9.0,70,0.00,,,0.54,Wunderground v.1.15,2013-07-10 21:08:00,
2013-07-10 17:13:00,84.9,74.9,29.80,SSW,203,3.0,4.0,72,0.00,,,0.54,Wunderground v.1.15,2013-07-10 21:13:00,
2013-07-10 17:20:00,84.9,74.4,29.80,SSW,196,3.0,5.0,71,0.00,,,0.54,Wunderground v.1.15,2013-07-10 21:20:00,
2013-07-10 17:26:00,85.0,75.8,29.80,SSW,194,2.0,5.0,74,0.00,,,0.54,Wunderground v.1.15,2013-07-10 21:26:00,
2013-07-10 17:32:00,85.1,75.5,29.79,SW,219,2.0,2.0,73,0.00,,,0.54,Wunderground v.1.15,2013-07-10 21:32:00,
2013-07-10 17:38:00,84.6,75.0,29.80,SW,234,1.0,4.0,73,0.00,,,0.54,Wunderground v.1.15,2013-07-10 21:38:00,
2013-07-10 17:44:00,84.8,75.6,29.80,SW,229,2.0,4.0,74,0.00,,,0.54,Wunderground v.1.15,2013-07-10 21:44:00,
2013-07-10 17:50:00,84.2,75.4,29.81,WSW,243,3.0,4.0,75,0.00,,,0.54,Wunderground v.1.15,2013-07-10 21:50:00,
2013-07-10 17:56:00,83.9,75.5,29.82,WSW,246,5.0,6.0,76,0.00,,,0.54,Wunderground v.1.15,2013-07-10 21:56:00,
2013-07-10 18:02:00,83.9,75.9,29.81,SW,228,4.0,5.0,77,0.00,,,0.54,Wunderground v.1.15,2013-07-10 22:02:00,
2013-07-10 18:08:00,84.1,76.1,29.82,SW,225,3.0,6.0,77,0.00,,,0.54,Wunderground v.1.15,2013-07-10 22:08:00,
2013-07-10 18:14:00,84.2,76.6,29.81,SSW,196,3.0,3.0,78,0.00,,,0.54,Wunderground v.1.15,2013-07-10 22:14:00,
2013-07-10 18:20:00,84.2,76.6,29.80,SSW,198,2.0,3.0,78,0.00,,,0.54,Wunderground v.1.15,2013-07-10 22:20:00,
2013-07-10 18:26:00,84.0,76.8,29.81,SW,220,1.0,3.0,79,0.00,,,0.54,Wunderground v.1.15,2013-07-10 22:26:00,
2013-07-10 18:31:00,84.0,76.8,29.81,WSW,246,2.0,3.0,79,0.00,,,0.54,Wunderground v.1.15,2013-07-10 22:31:00,
2013-07-10 18:38:00,84.1,76.1,29.81,SW,216,2.0,3.0,77,0.00,,,0.54,Wunderground v.1.15,2013-07-10 22:38:00,
2013-07-10 18:44:00,83.8,76.2,29.81,SSW,209,2.0,2.0,78,0.00,,,0.54,Wunderground v.1.15,2013-07-10 22:44:00,
2013-07-10 18:50:00,83.6,74.8,29.81,SSW,196,3.0,3.0,75,0.00,,,0.54,Wunderground v.1.15,2013-07-10 22:50:00,
2013-07-10 18:55:00,83.4,74.6,29.81,SSW,207,3.0,3.0,75,0.00,,,0.54,Wunderground v.1.15,2013-07-10 22:55:00,
2013-07-10 19:01:00,83.2,74.8,29.81,SSW,203,2.0,3.0,76,0.00,,,0.54,Wunderground v.1.15,2013-07-10 23:01:00,
2013-07-10 19:08:00,82.9,74.9,29.81,SSW,203,1.0,3.0,77,0.00,,,0.54,Wunderground v.1.15,2013-07-10 23:08:00,
2013-07-10 19:14:00,82.5,74.9,29.81,SSW,203,0.0,1.0,78,0.00,,,0.54,Wunderground v.1.15,2013-07-10 23:14:00,
2013-07-10 19:20:00,82.2,74.7,29.81,SSW,203,0.0,0.0,78,0.00,,,0.54,Wunderground v.1.15,2013-07-10 23:20:00,
2013-07-10 19:26:00,81.8,74.6,29.81,SSW,203,0.0,1.0,79,0.00,,,0.54,Wunderground v.1.15,2013-07-10 23:26:00,
2013-07-10 19:32:00,81.0,74.2,29.80,SSW,203,0.0,0.0,80,0.00,,,0.54,Wunderground v.1.15,2013-07-10 23:32:00,
2013-07-10 19:38:00,80.4,74.0,29.80,SSW,203,0.0,2.0,81,0.00,,,0.54,Wunderground v.1.15,2013-07-10 23:38:00,
2013-07-10 19:43:00,79.9,73.5,29.81,SSW,203,0.0,0.0,81,0.00,,,0.54,Wunderground v.1.15,2013-07-10 23:43:00,
2013-07-10 19:50:00,79.2,73.2,29.81,SSW,203,0.0,0.0,82,0.00,,,0.54,Wunderground v.1.15,2013-07-10 23:50:00,
2013-07-10 19:56:00,78.7,72.7,29.81,SSW,203,0.0,0.0,82,0.00,,,0.54,Wunderground v.1.15,2013-07-10 23:56:00,
2013-07-10 20:01:00,78.3,72.3,29.81,SSW,205,0.0,1.0,82,0.00,,,0.54,Wunderground v.1.15,2013-07-11 00:01:00,
2013-07-10 20:08:00,77.3,71.7,29.83,NNW,329,1.0,5.0,83,0.00,,,0.54,Wunderground v.1.15,2013-07-11 00:08:00,
2013-07-10 20:13:00,77.3,69.5,29.86,NW,323,8.0,24.0,77,0.00,,,0.54,Wunderground v.1.15,2013-07-11 00:13:00,
2013-07-10 20:20:00,74.4,65.6,29.85,NNW,329,14.0,17.0,74,0.00,,,0.54,Wunderground v.1.15,2013-07-11 00:20:00,
2013-07-10 20:26:00,73.3,65.3,29.87,NNW,341,13.0,17.0,76,0.00,,,0.54,Wunderground v.1.15,2013-07-11 00:26:00,
2013-07-10 20:32:00,72.9,64.9,29.86,NW,315,11.0,12.0,76,0.00,,,0.54,Wunderground v.1.15,2013-07-11 00:32:00,
2013-07-10 20:38:00,72.3,65.4,29.87,ESE,115,8.0,12.0,79,0.20,,,0.56,Wunderground v.1.15,2013-07-11 00:38:00,
2013-07-10 20:44:00,71.0,65.2,29.87,East,87,6.0,8.0,82,0.09,,,0.56,Wunderground v.1.15,2013-07-11 00:44:00,
2013-07-10 20:50:00,69.5,64.1,29.87,ENE,60,8.0,12.0,83,0.05,,,0.56,Wunderground v.1.15,2013-07-11 00:50:00,
2013-07-10 20:56:00,68.6,63.9,29.87,ENE,61,8.0,12.0,85,0.00,,,0.56,Wunderground v.1.15,2013-07-11 00:56:00,
2013-07-10 21:02:00,67.9,63.2,29.87,ENE,73,5.0,6.0,85,0.00,,,0.56,Wunderground v.1.15,2013-07-11 01:02:00,
2013-07-10 21:08:00,67.8,63.1,29.88,ENE,78,3.0,6.0,85,0.00,,,0.56,Wunderground v.1.15,2013-07-11 01:08:00,
2013-07-10 21:13:00,67.6,63.3,29.88,NE,47,1.0,4.0,86,0.00,,,0.56,Wunderground v.1.15,2013-07-11 01:13:00,
2013-07-10 21:20:00,67.3,63.0,29.86,NNE,31,5.0,8.0,86,0.00,,,0.56,Wunderground v.1.15,2013-07-11 01:20:00,
2013-07-10 21:26:00,67.2,62.9,29.87,ENE,57,8.0,8.0,86,0.00,,,0.56,Wunderground v.1.15,2013-07-11 01:26:00,
2013-07-10 21:32:00,67.0,62.7,29.87,ENE,64,5.0,6.0,86,0.00,,,0.56,Wunderground v.1.15,2013-07-11 01:32:00,
2013-07-10 21:38:00,66.7,62.7,29.87,ENE,59,3.0,6.0,87,0.00,,,0.56,Wunderground v.1.15,2013-07-11 01:38:00,
2013-07-10 21:44:00,66.5,62.5,29.87,ENE,59,1.0,3.0,87,0.00,,,0.56,Wunderground v.1.15,2013-07-11 01:44:00,
2013-07-10 21:50:00,66.4,62.4,29.88,ENE,61,2.0,2.0,87,0.00,,,0.56,Wunderground v.1.15,2013-07-11 01:50:00,
2013-07-10 21:56:00,66.1,62.4,29.88,ESE,116,2.0,3.0,88,0.00,,,0.56,Wunderground v.1.15,2013-07-11 01:56:00,
2013-07-10 22:02:00,65.9,62.6,29.88,SE,128,2.0,2.0,89,0.00,,,0.56,Wunderground v.1.15,2013-07-11 02:02:00,
2013-07-10 22:08:00,65.8,62.5,29.88,SE,130,1.0,2.0,89,0.00,,,0.56,Wunderground v.1.15,2013-07-11 02:08:00,
2013-07-10 22:14:00,65.6,62.3,29.88,SE,130,0.0,1.0,89,0.00,,,0.56,Wunderground v.1.15,2013-07-11 02:14:00,
2013-07-10 22:20:00,65.5,62.2,29.88,SSE,166,1.0,1.0,89,0.00,,,0.56,Wunderground v.1.15,2013-07-11 02:20:00,
2013-07-10 22:26:00,65.4,62.1,29.88,SSE,166,2.0,3.0,89,0.00,,,0.56,Wunderground v.1.15,2013-07-11 02:26:00,
2013-07-10 22:32:00,65.5,62.5,29.88,SSE,166,1.0,2.0,90,0.00,,,0.56,Wunderground v.1.15,2013-07-11 02:32:00,
2013-07-10 22:38:00,65.4,62.4,29.88,SSE,166,0.0,2.0,90,0.00,,,0.56,Wunderground v.1.15,2013-07-11 02:38:00,
2013-07-10 22:44:00,65.4,62.4,29.87,SSE,166,0.0,0.0,90,0.00,,,0.56,Wunderground v.1.15,2013-07-11 02:44:00,
2013-07-10 22:50:00,65.4,62.7,29.87,SSE,166,0.0,0.0,91,0.00,,,0.56,Wunderground v.1.15,2013-07-11 02:50:00,
2013-07-10 22:56:00,65.4,62.7,29.86,SSE,166,0.0,0.0,91,0.00,,,0.56,Wunderground v.1.15,2013-07-11 02:56:00,
2013-07-10 23:02:00,65.2,62.5,29.85,SSE,166,0.0,0.0,91,0.00,,,0.57,Wunderground v.1.15,2013-07-11 03:02:00,
2013-07-10 23:08:00,65.0,62.3,29.84,SSE,166,0.0,0.0,91,0.00,,,0.57,Wunderground v.1.15,2013-07-11 03:08:00,
2013-07-10 23:14:00,65.0,62.3,29.84,SSE,166,0.0,0.0,91,0.00,,,0.57,Wunderground v.1.15,2013-07-11 03:14:00,
2013-07-10 23:20:00,65.1,62.7,29.83,SSE,166,0.0,0.0,92,0.00,,,0.57,Wunderground v.1.15,2013-07-11 03:20:00,
2013-07-10 23:26:00,64.9,62.5,29.84,WSW,246,1.0,4.0,92,0.00,,,0.57,Wunderground v.1.15,2013-07-11 03:26:00,
2013-07-10 23:32:00,64.8,62.4,29.84,WSW,246,2.0,3.0,92,0.00,,,0.57,Wunderground v.1.15,2013-07-11 03:32:00,
2013-07-10 23:38:00,64.7,62.3,29.83,WSW,246,1.0,3.0,92,0.00,,,0.57,Wunderground v.1.15,2013-07-11 03:38:00,
2013-07-10 23:44:00,64.7,62.3,29.83,WSW,246,0.0,1.0,92,0.00,,,0.57,Wunderground v.1.15,2013-07-11 03:44:00,
2013-07-10 23:50:00,64.6,62.2,29.83,WSW,246,1.0,3.0,92,0.00,,,0.57,Wunderground v.1.15,2013-07-11 03:50:00,
2013-07-10 23:56:00,64.7,62.6,29.83,WSW,246,1.0,3.0,93,0.00,,,0.57,Wunderground v.1.15,2013-07-11 03:56:00,